This is the latest recevied weather packets stored in our database for station/object SP1BMW-13. If no packets are shown the sender has not sent any weather packets the latest 10 day(s).
| Time | Temp. | Humidity | Pressure | Rain* | Wind** | Luminosity | Snow |
|---|---|---|---|---|---|---|---|
| 1787397661 | 19.44° C | 57% | 1009.7 hPa | 0 mm | 2.24 m/s, 208° | 282 W/m² | - |
| 1787397601 | 19.44° C | 57% | 1009.8 hPa | 0 mm | 0.89 m/s, 247° | 334 W/m² | - |
| 1787397541 | 19.44° C | 57% | 1009.8 hPa | 0 mm | 2.24 m/s, 2° | 295 W/m² | - |
| 1787397482 | 20° C | 57% | 1009.8 hPa | 0 mm | 1.79 m/s, 225° | 260 W/m² | - |
| 1787397421 | 20° C | 55% | 1009.7 hPa | 0 mm | 1.79 m/s, 223° | 237 W/m² | - |
| 1787397362 | 20.56° C | 55% | 1009.7 hPa | 0 mm | 1.34 m/s, 41° | 214 W/m² | - |
| 1787397301 | 20.56° C | 54% | 1009.7 hPa | 0 mm | 3.13 m/s, 261° | 201 W/m² | - |
| 1787397241 | 20.56° C | 53% | 1009.6 hPa | 0 mm | 3.58 m/s, 275° | 199 W/m² | - |
| 1787397181 | 20.56° C | 54% | 1009.9 hPa | 0 mm | 0.89 m/s, 226° | 209 W/m² | - |
| 1787397121 | 20.56° C | 54% | 1009.8 hPa | 0 mm | 1.34 m/s, 240° | 310 W/m² | - |
| 1787397061 | 20.56° C | 54% | 1009.8 hPa | 0 mm | 2.24 m/s, 216° | 770 W/m² | - |
| 1787397001 | 20.56° C | 55% | 1009.5 hPa | 0 mm | 1.34 m/s, 284° | 783 W/m² | - |
| 1787396941 | 20.56° C | 54% | 1009.7 hPa | 0 mm | 2.68 m/s, 255° | 336 W/m² | - |
| 1787396881 | 20° C | 54% | 1009.5 hPa | 0 mm | 2.68 m/s, 261° | 870 W/m² | - |
| 1787396821 | 20° C | 58% | 1009.7 hPa | 0 mm | 1.79 m/s, 209° | 740 W/m² | - |
| 1787396761 | 20° C | 58% | 1009.6 hPa | 0 mm | 0.45 m/s, 108° | 819 W/m² | - |
| 1787396701 | 19.44° C | 57% | 1009.6 hPa | 0 mm | 1.79 m/s, 198° | 553 W/m² | - |
| 1787396641 | 19.44° C | 58% | 1009.7 hPa | 0 mm | 1.79 m/s, 281° | 753 W/m² | - |
| 1787396581 | 19.44° C | 59% | 1009.7 hPa | 0 mm | 0.89 m/s, 183° | 732 W/m² | - |
| 1787396521 | 19.44° C | 57% | 1009.5 hPa | 0 mm | 3.13 m/s, 240° | 560 W/m² | - |
| 1787396462 | 19.44° C | 58% | 1009.6 hPa | 0 mm | 0.45 m/s, 238° | 637 W/m² | - |
| 1787396401 | 20° C | 57% | 1009.6 hPa | 0 mm | 1.34 m/s, 245° | 176 W/m² | - |
| 1787396341 | 20° C | 56% | 1009.6 hPa | 0 mm | 2.24 m/s, 221° | 208 W/m² | - |
| 1787396281 | 20° C | 56% | 1009.6 hPa | 0 mm | 1.34 m/s, 301° | 223 W/m² | - |
| 1787396222 | 20° C | 55% | 1009.6 hPa | 0 mm | 0.89 m/s, 305° | 220 W/m² | - |
* Rain latest hour (hover to see other rain measurements)
** Current wind speed in m/s (hover to see current wind gust speed)